Location: St. Louis
(38.6270°N, 90.1994°W)
Time: 10:58:51
(UTC-06:00)

S-56A Canister/Altair - Pass Details

Date: 03 December 2021
Orbit: 634 x 2499 km, 38.9° (Epoch: 26 January)

Event Time Altitude Azimuth Distance (km) Brightness Sun altitude
Rises 03:41:08 0° 279° (W) 4,005 - -38.5°
Reaches altitude 10° 03:44:20 10° 278° (W) 2,776 - -37.9°
Maximum altitude 03:50:37 80° 193° (SSW) 788 - -36.7°
Exits shadow 03:53:38 23° 108° (ESE) 1,458 9.4 -36.1°
Drops below altitude 10° 03:55:17 10° 107° (ESE) 2,087 10.5 -35.8°
Sets 03:57:23 0° 106° (ESE) 2,939 11.5 -35.4°
